Regional Weather Roundup
Issued by NWS

Home | Current Version | Previous Version | Graphics & Text | Print | Product List | Glossary On
Versions: 1 2 3 4 5 6 7 8 9 10 11 12 13 14 15 16 17 18 19 20 21 22 23 24 25 26 27 28 29 30 31 32 33 34 35 36 37 38 39 40 41 42 43 44 45 46 47 48 49 50
000
ASUS45 KBOI 180910
RWRID
WEATHER ROUNDUP FOR IDAHO
NATIONAL WEATHER SERVICE BOISE ID
300 AM MDT THU SEP 18 2014

NOTE: "FAIR" INDICATES FEW OR NO CLOUDS BELOW 12000 FEET
WITH NO SIGNIFICANT WEATHER AND/OR OBSTRUCTIONS TO VISIBILITY

IDZ012-014-181000-
SOUTHWEST IDAHO


CITY           SKY/WX    TMP DP  RH WIND       PRES   REMARKS
BOISE          CLOUDY    73  42  32 CALM      29.70F
CALDWELL       CLOUDY    66  46  48 CALM      29.70F
MOUNTAIN HOME  CLOUDY    70  50  48 E8        29.70F
$$

IDZ016-017-181000-
SOUTHCENTRAL IDAHO


CITY           SKY/WX    TMP DP  RH WIND       PRES   REMARKS
BURLEY         MOCLDY    66  54  65 SE6       29.79F
JEROME         CLOUDY    70  48  45 E10       29.78F
TWIN FALLS     MOCLDY    73  45  36 S17       29.78F
$$

IDZ019>023-181000-
SOUTHEAST IDAHO


CITY           SKY/WX    TMP DP  RH WIND       PRES   REMARKS
IDAHO FALLS    LGT RAIN  75  43  31 SE21G26   29.88F
POCATELLO      PTCLDY    71  43  36 E8        29.86F
REXBURG        CLOUDY    63  44  50 CALM      29.92S
$$

IDZ006-010-011-018-031-032-181000-
CENTRAL IDAHO MOUNTAINS


CITY           SKY/WX    TMP DP  RH WIND       PRES   REMARKS
MCCALL         CLOUDY    54  39  57 CALM      29.87R
HAILEY         MOCLDY    59  45  58 NW5       29.92F
STANLEY          N/A     53  38  56 CALM      29.99F
SALMON         CLOUDY    52  46  82 CALM      29.85F
CHALLIS        CLOUDY    58  41  53 NW9       29.90F
$$

IDZ002-004-006-007-026-181000-
NORTHERN IDAHO


CITY           SKY/WX    TMP DP  RH WIND       PRES   REMARKS
LEWISTON       MOCLDY    68  40  35 W3        29.64R
LOWELL           N/A     58  56  93 CALM      29.69S
COEUR D`ALENE  CLOUDY    57  46  67 N6        29.65F
MULLAN PASS    CLOUDY    62  35  36 S5        29.87F
$$


USA.gov is the U.S. government's official web portal to all federal, state and local government web resources and services.